Creek Data

    Home     View Charts     View Raw Data     Messages

ID Distance Battery Voltage Battery Current Internal Temp Internal Humidity External Temp Solar Input rssi snr Time Stamp Record
35717 0.0 4.04 0 68 40 64 5.1 -82 9 03/22/2025 02:45 PM 17488
35716 0.0 4.04 0 68 41 63 5.1 -83 8 03/22/2025 02:31 PM 17487
35715 0.0 4.04 0 67 41 63 5.1 -82 8 03/22/2025 02:15 PM 17486
35714 0.0 4.04 0 67 41 63 5.1 -82 8 03/22/2025 02:00 PM 17485
35713 0.0 4.04 0 68 41 63 5.1 -83 8 03/22/2025 01:45 PM 17484
35712 0.0 4.04 0 68 41 64 5.1 -81 8 03/22/2025 01:30 PM 17483
35711 0.0 4.04 0 68 41 63 5.1 -82 8 03/22/2025 01:15 PM 17482
35710 0.0 4.14 69 67 41 64 4.5 -80 7 03/22/2025 01:00 PM 17481
35709 0.0 4.10 0 68 41 66 5.1 -81 8 03/22/2025 12:45 PM 17480
35708 0.0 4.08 0 69 40 64 5.1 -81 8 03/22/2025 12:30 PM 17479
35707 0.0 4.04 5 70 39 64 5.1 -82 7 03/22/2025 12:15 PM 17478
35706 0.0 4.04 0 69 39 64 5.1 -81 9 03/22/2025 12:00 PM 17477
35705 0.0 4.03 5 71 37 64 5.1 -79 8 03/22/2025 11:45 AM 17476
35704 0.0 4.03 0 71 37 68 5.1 -81 8 03/22/2025 11:30 AM 17475
35703 0.0 4.15 0 69 37 68 5.1 -82 8 03/22/2025 11:15 AM 17474
35702 0.0 4.03 5 67 37 68 5.1 -82 8 03/22/2025 11:01 AM 17473
35701 0.0 4.09 5 66 37 65 5.1 -82 7 03/22/2025 10:45 AM 17472
35700 0.0 4.03 5 63 37 67 5.1 -82 9 03/22/2025 10:30 AM 17471
35699 0.0 4.03 0 60 38 58 5.1 -82 8 03/22/2025 10:15 AM 17470
35698 15.4 4.03 5 60 37 58 5.1 -83 8 03/22/2025 10:00 AM 17469
35697 15.3 4.03 0 58 37 58 5.1 -82 7 03/22/2025 09:45 AM 17468
35696 0.0 4.03 5 57 37 58 5.1 -82 8 03/22/2025 09:30 AM 17467
35695 0.0 4.10 29 55 37 58 4.5 -81 7 03/22/2025 09:15 AM 17466
35694 0.0 4.06 35 53 37 54 4.5 -82 8 03/22/2025 09:00 AM 17465
35693 0.0 4.03 14 51 37 52 4.5 -82 7 03/22/2025 08:45 AM 17464